Wind_Speed
39 39 38 37 38 40 40 39 37 37 37 37 37 35 35 35 35 35 35 36 36 36 37 37 38 39 40 40 41 42 42 43 44 44 44 45 45 46 47 47 49 50 51 52
41 41 39 39 40 40 40 39 39 39 39 39 39 37 36 37 36 36 36 36 37 37 38 39 40 40 41 41 42 43 43 44 45 45 46 46 47 47 48 48 49 50 51 52
43 43 42 41 41 41 41 40 39 40 40 41 41 39 37 37 37 37 37 37 37 38 38 40 41 41 41 42 43 44 45 45 46 47 47 47 48 49 49 49 49 50 51 53
44 44 44 43 43 42 42 41 41 42 42 43 42 42 37 37 37 37 37 37 38 38 39 40 41 42 42 43 44 45 45 46 47 48 48 49 49 49 50 50 51 51 53 54
45 44 44 44 43 43 43 43 43 43 44 45 43 44 40 38 37 37 37 38 39 40 40 41 42 43 43 44 45 45 46 47 48 48 49 50 50 51 52 52 53 53 54 56
46 46 45 44 44 44 44 44 44 45 45 47 43 44 43 39 38 38 39 40 40 40 41 42 43 43 44 45 46 46 46 47 48 49 50 51 52 52 53 54 55 55 56 57
45 45 45 45 44 44 44 44 44 45 46 47 44 44 44 41 39 39 40 41 41 42 43 43 43 43 44 45 46 47 47 47 48 49 50 51 52 53 54 55 56 56 57 57
43 43 43 44 44 43 43 43 44 45 46 46 45 44 43 42 41 40 40 41 42 42 43 43 43 44 44 45 45 45 46 48 49 50 51 51 52 53 54 55 56 56 56 56
41 42 42 42 42 43 43 43 43 45 47 47 47 45 43 41 41 41 40 41 41 41 42 43 43 44 44 44 45 45 46 47 48 49 50 51 52 52 54 54 55 55 54 53
41 42 42 42 42 43 43 42 42 43 45 46 47 45 43 41 40 41 41 41 40 41 41 42 42 43 44 44 44 45 46 47 47 49 49 50 50 51 52 53 53 53 51 50
40 42 42 42 42 42 42 43 43 44 46 46 47 46 44 43 41 41 41 41 40 41 41 41 42 43 43 44 45 45 46 46 47 47 48 48 49 50 50 50 49 49 48 48
41 42 42 41 41 41 42 43 43 44 45 46 47 48 45 44 43 43 42 42 41 42 42 42 42 41 42 43 44 44 45 46 46 47 47 47 47 47 47 46 46 46 46 46
41 42 43 43 42 41 42 42 42 43 44 46 47 47 44 44 44 45 44 43 42 41 42 42 42 42 42 42 42 43 44 44 45 46 46 45 45 44 44 43 44 45 45 44
41 42 42 43 43 42 42 41 41 42 43 45 45 44 42 43 44 44 44 43 42 41 41 41 41 41 41 41 41 42 43 43 43 44 44 44 43 42 41 41 43 43 43 43
41 41 41 42 43 43 43 42 41 42 43 44 43 42 41 42 42 42 41 41 40 40 40 40 41 40 40 40 40 41 42 43 43 42 42 41 41 41 41 40 40 40 40 41
41 42 41 41 42 43 44 43 43 42 42 42 42 40 39 40 40 40 39 39 39 39 40 40 40 40 40 41 41 41 41 41 41 41 40 40 41 40 39 39 38 39 39 39
41 41 40 40 40 42 42 41 41 42 41 41 41 39 38 38 38 39 38 38 39 39 40 40 39 39 40 40 40 40 40 40 40 40 40 40 40 40 39 39 39 40 38 37
39 40 41 41 40 43 40 39 39 40 39 39 39 38 38 38 38 38 39 39 39 39 40 41 41 41 40 40 39 39 39 39 39 39 39 40 40 39 38 38 38 38 37 36
36 37 39 40 42 42 40 38 37 38 38 37 37 37 37 38 39 39 39 40 40 40 40 41 41 41 40 39 38 38 38 38 38 37 38 38 38 37 36 35 35 35 35 35
34 35 36 37 38 39 38 37 38 39 39 37 37 36 36 37 38 38 38 39 39 39 39 39 39 38 38 37 37 37 37 37 37 38 38 38 37 36 35 35 35 34 34 33
31 32 33 33 35 36 35 35 36 38 37 37 37 37 36 36 36 36 37 38 37 37 37 37 37 37 37 37 36 36 36 36 37 37 37 37 37 36 35 35 35 34 32 31
29 30 30 31 32 32 31 32 34 35 35 34 35 35 35 34 34 34 35 36 36 36 36 36 36 36 37 37 37 36 36 36 36 37 37 37 37 37 36 35 33 32 31 30
28 28 29 29 30 30 31 32 32 33 33 32 32 32 33 33 33 34 34 34 34 35 35 35 35 35 35 36 35 35 34 35 35 35 35 36 36 35 34 33 31 31 30 29
27 27 28 28 27 28 29 31 31 31 31 31 30 30 31 31 32 32 33 34 34 34 35 34 34 33 33 33 33 33 33 33 33 33 33 33 33 32 31 30 30 29 28 27
25 26 27 27 27 27 27 28 29 29 29 29 30 29 29 29 30 31 31 32 33 33 33 33 32 32 32 31 31 32 32 32 31 31 30 29 29 28 28 28 28 27 26 26
24 26 26 26 26 27 26 27 28 28 29 29 29 29 29 29 29 29 30 30 31 31 31 31 30 30 30 30 30 30 30 30 30 29 28 27 26 26 26 26 26 25 25 24
Wind_Direction
253 254 255 256 256 257 257 258 259 259 260 260 261 262 264 265 265 265 264 263 261 261 261 261 262 262 262 262 262 263 264 264 265 265 266 266 267 268 269 270 270 270 271 271
253 254 254 255 256 257 258 259 260 260 260 261 261 262 263 265 265 265 264 263 263 263 263 263 263 264 263 263 264 265 265 266 267 267 267 268 268 269 270 271 271 271 272 273
254 254 254 255 256 257 258 259 260 261 262 262 263 261 262 263 265 265 264 264 263 264 264 265 265 265 263 263 264 265 266 267 268 268 268 269 270 270 270 271 272 272 272 273
254 254 254 254 255 257 258 259 260 261 261 263 263 263 260 262 264 265 265 265 264 265 265 266 266 266 264 265 265 267 267 268 268 269 270 270 270 270 271 272 272 273 274 275
254 253 254 254 255 256 258 258 259 260 261 262 263 264 261 261 263 264 265 266 266 266 266 267 267 266 266 266 267 267 268 269 269 270 271 271 271 271 272 272 273 274 275 275
253 253 253 253 254 255 257 258 259 260 261 262 262 264 264 264 265 265 265 266 266 267 268 268 268 267 267 268 268 269 269 269 270 271 272 272 272 272 273 273 273 274 276 276
251 251 252 252 253 254 255 257 259 260 261 263 263 263 265 266 267 267 266 266 267 268 269 269 267 268 268 268 269 270 270 270 271 271 272 273 274 274 274 274 275 275 276 276
250 249 250 252 253 254 255 256 258 261 263 264 263 264 265 267 269 269 268 269 270 269 269 269 269 268 268 270 271 271 270 270 271 271 272 274 275 275 275 275 276 276 277 277
250 250 250 251 251 252 252 254 257 260 262 264 263 264 265 268 270 270 270 271 272 271 270 270 271 270 270 271 271 271 271 271 272 272 273 275 276 276 276 276 276 276 276 276
250 251 250 251 251 251 252 253 255 258 261 263 264 264 265 266 268 269 271 273 273 272 271 271 270 271 271 270 271 272 272 272 273 274 275 276 277 277 277 277 276 275 275 275
247 250 251 251 251 252 252 253 255 257 259 263 265 265 265 268 269 270 271 272 272 272 272 272 272 272 272 271 272 272 272 273 274 275 276 277 278 278 278 278 277 275 275 275
246 248 250 252 252 253 253 254 256 258 260 262 264 264 266 268 268 270 272 273 272 272 272 272 272 271 272 272 272 272 273 274 275 276 277 278 278 278 277 277 275 274 275 277
246 248 250 251 252 252 254 255 257 259 260 261 263 265 266 267 267 270 271 271 271 271 270 271 271 272 272 272 272 272 274 275 275 277 278 278 278 278 277 276 275 275 275 276
247 249 250 252 254 254 254 256 257 257 259 261 263 264 263 265 266 268 269 270 270 270 270 270 270 271 272 272 273 273 274 275 276 278 278 277 278 278 277 276 276 276 276 276
247 249 250 251 253 254 255 256 257 258 260 263 264 263 262 263 265 266 268 269 269 269 270 269 270 270 271 272 272 274 274 275 277 277 277 276 277 276 276 276 277 277 278 278
248 249 250 250 252 254 255 256 258 259 261 263 264 264 262 263 264 264 266 267 267 268 270 270 271 271 272 272 273 274 274 275 276 275 275 276 276 276 276 277 277 278 279 280
251 252 252 252 252 255 256 257 258 260 261 262 264 264 263 263 263 264 265 267 267 267 269 270 272 272 273 273 273 273 275 276 276 275 275 275 277 278 278 278 278 279 280 280
252 253 254 255 254 255 257 256 258 259 260 261 263 264 263 262 262 263 265 266 266 268 269 270 271 272 273 273 273 274 275 275 275 275 276 277 279 278 277 277 278 278 278 279
254 255 255 256 256 257 257 257 258 259 260 261 263 264 264 263 262 262 264 265 267 268 268 270 271 271 272 273 273 274 274 273 273 274 277 278 278 276 276 277 279 279 277 278
254 254 255 256 258 259 258 256 257 259 261 262 263 263 264 265 264 263 264 264 266 267 268 269 270 271 272 273 273 273 273 273 273 275 277 277 277 277 276 277 278 277 277 275
253 253 254 255 257 259 258 258 258 260 262 262 263 263 264 265 265 264 263 264 265 266 267 268 269 271 272 273 273 274 273 274 275 275 276 277 277 277 277 277 277 277 276 274
253 254 254 254 255 257 257 257 257 259 261 262 262 262 263 265 265 265 264 265 266 267 267 268 269 270 272 272 273 274 274 274 274 275 276 276 276 276 276 276 276 274 273 272
255 255 255 256 257 258 257 257 257 258 258 257 259 260 262 264 265 265 266 266 267 269 269 270 270 271 272 273 272 272 273 274 274 275 275 276 275 275 275 275 274 272 272 270
257 257 257 258 258 258 259 259 258 256 255 256 258 260 262 264 265 266 267 268 269 270 271 272 272 273 274 273 272 273 273 275 276 277 276 274 274 273 272 273 273 272 271 270
256 256 257 259 259 260 259 258 257 256 255 256 258 260 263 265 266 267 269 270 270 270 270 271 272 272 272 271 272 273 274 274 276 277 276 275 273 271 270 270 271 271 270 270
254 257 258 258 258 258 258 257 255 255 255 257 259 261 264 266 267 268 269 269 269 269 269 269 270 271 271 271 271 272 273 274 275 275 274 274 272 271 271 270 270 271 270 268
Height
5674 5677 5679 5681 5682 5683 5684 5686 5688 5689 5689 5690 5691 5692 5693 5692 5693 5693 5694 5694 5695 5697 5698 5699 5700 5701 5703 5705 5707 5708 5709 5710 5711 5711 5712 5713 5714 5714 5715 5715 5715 5715 5714 5714
5664 5667 5670 5670 5672 5673 5675 5676 5678 5680 5679 5680 5681 5683 5684 5684 5685 5685 5685 5686 5687 5688 5689 5690 5690 5691 5693 5695 5696 5698 5699 5699 5700 5701 5701 5702 5702 5703 5703 5703 5702 5702 5701 5700
5653 5658 5659 5660 5662 5663 5665 5667 5669 5669 5669 5669 5671 5674 5676 5676 5675 5676 5676 5677 5677 5678 5679 5680 5680 5681 5682 5684 5686 5687 5688 5688 5689 5689 5689 5689 5690 5690 5690 5690 5690 5689 5688 5687
5642 5645 5648 5650 5652 5653 5655 5657 5658 5658 5658 5659 5661 5661 5667 5667 5667 5667 5667 5668 5668 5669 5670 5670 5670 5671 5672 5673 5674 5675 5676 5676 5677 5677 5677 5677 5677 5677 5678 5677 5677 5676 5674 5673
5631 5634 5636 5639 5642 5643 5645 5646 5647 5647 5647 5648 5650 5650 5656 5657 5658 5658 5658 5658 5659 5659 5660 5660 5660 5661 5661 5662 5663 5663 5664 5664 5664 5664 5664 5664 5664 5664 5664 5663 5663 5662 5660 5658
5620 5622 5625 5628 5630 5632 5633 5635 5636 5636 5636 5638 5641 5640 5643 5647 5648 5648 5649 5649 5649 5649 5650 5650 5650 5650 5650 5650 5651 5651 5651 5652 5652 5651 5651 5650 5650 5649 5649 5648 5648 5647 5645 5643
5608 5611 5613 5617 5619 5621 5623 5625 5625 5625 5625 5628 5630 5630 5633 5636 5638 5638 5638 5638 5638 5639 5639 5639 5639 5639 5639 5639 5639 5638 5638 5639 5639 5638 5637 5636 5635 5634 5633 5633 5632 5631 5630 5628
5596 5600 5603 5606 5609 5611 5612 5614 5616 5616 5616 5617 5619 5620 5624 5625 5626 5627 5627 5627 5627 5627 5627 5627 5627 5627 5627 5627 5626 5626 5626 5626 5626 5625 5624 5623 5621 5620 5619 5617 5616 5615 5613 5612
5585 5589 5592 5595 5597 5600 5601 5603 5605 5605 5604 5605 5607 5610 5614 5615 5615 5616 5616 5616 5615 5615 5616 5616 5616 5615 5615 5615 5614 5614 5614 5614 5613 5612 5610 5609 5607 5605 5604 5602 5600 5599 5598 5596
5574 5578 5581 5584 5586 5588 5591 5593 5594 5594 5593 5594 5596 5600 5604 5605 5605 5605 5605 5605 5604 5604 5604 5604 5604 5603 5603 5603 5603 5603 5602 5601 5600 5599 5597 5595 5593 5591 5589 5587 5585 5584 5583 5582
5564 5567 5570 5573 5576 5579 5581 5583 5583 5583 5584 5585 5586 5592 5593 5594 5594 5595 5594 5594 5594 5594 5593 5593 5593 5592 5592 5591 5591 5590 5590 5589 5588 5586 5584 5582 5580 5577 5575 5573 5571 5570 5569 5569
5553 5556 5559 5562 5565 5567 5569 5572 5573 5574 5575 5575 5576 5583 5583 5584 5583 5583 5583 5583 5582 5582 5582 5582 5582 5581 5581 5580 5579 5579 5578 5577 5575 5574 5572 5569 5567 5564 5562 5560 5559 5558 5557 5556
5542 5545 5548 5551 5556 5557 5558 5561 5562 5563 5564 5564 5565 5572 5573 5573 5572 5572 5571 5571 5571 5571 5572 5571 5571 5570 5569 5569 5568 5567 5566 5564 5563 5561 5560 5558 5555 5553 5551 5549 5548 5547 5546 5545
5531 5534 5538 5541 5543 5545 5548 5550 5551 5552 5552 5553 5556 5560 5562 5561 5561 5561 5560 5560 5561 5561 5561 5561 5560 5560 5559 5558 5557 5556 5554 5553 5551 5550 5548 5546 5544 5542 5540 5539 5538 5536 5535 5534
5520 5524 5526 5529 5531 5533 5536 5539 5541 5541 5542 5543 5546 5548 5551 5550 5550 5550 5550 5550 5550 5551 5551 5550 5550 5550 5549 5548 5546 5545 5544 5542 5541 5539 5537 5536 5534 5532 5530 5529 5527 5526 5524 5523
5510 5513 5516 5519 5521 5522 5524 5528 5530 5531 5532 5533 5534 5537 5539 5539 5539 5540 5540 5540 5541 5541 5540 5540 5540 5540 5539 5537 5536 5535 5534 5532 5530 5529 5528 5526 5524 5523 5521 5519 5518 5516 5514 5513
5500 5503 5505 5508 5511 5511 5515 5519 5520 5521 5522 5523 5524 5528 5528 5528 5529 5530 5531 5531 5531 5531 5530 5530 5530 5529 5528 5527 5526 5525 5524 5522 5521 5520 5518 5517 5515 5514 5512 5510 5508 5506 5505 5503
5491 5493 5494 5497 5500 5501 5508 5509 5510 5511 5512 5513 5514 5516 5517 5518 5519 5520 5521 5521 5521 5521 5520 5520 5519 5519 5518 5517 5516 5515 5514 5513 5511 5510 5509 5507 5506 5504 5502 5500 5498 5497 5495 5494
5482 5483 5485 5487 5488 5491 5497 5499 5500 5501 5502 5503 5504 5505 5506 5507 5508 5510 5510 5510 5510 5510 5510 5510 5509 5508 5507 5507 5506 5505 5504 5503 5502 5501 5499 5498 5496 5494 5493 5491 5490 5488 5487 5486
5472 5474 5476 5477 5478 5481 5487 5489 5489 5491 5492 5494 5494 5495 5496 5496 5498 5501 5500 5500 5500 5500 5500 5500 5499 5498 5498 5497 5496 5495 5494 5494 5493 5492 5490 5489 5487 5485 5484 5483 5481 5480 5478 5477
5464 5465 5467 5468 5469 5472 5477 5478 5480 5483 5483 5484 5484 5485 5486 5487 5488 5490 5490 5490 5490 5490 5490 5490 5490 5489 5488 5487 5486 5486 5485 5484 5483 5482 5481 5480 5478 5476 5475 5474 5473 5471 5470 5469
5455 5457 5459 5460 5461 5466 5467 5468 5471 5471 5472 5474 5475 5476 5477 5478 5478 5479 5479 5480 5480 5480 5480 5480 5480 5479 5478 5477 5477 5476 5475 5475 5474 5473 5472 5471 5469 5467 5466 5465 5464 5463 5462 5461
5448 5450 5450 5453 5455 5456 5457 5459 5460 5462 5463 5464 5465 5467 5468 5468 5469 5469 5470 5470 5470 5471 5471 5470 5470 5470 5469 5468 5467 5467 5466 5465 5465 5464 5463 5462 5460 5459 5458 5457 5456 5455 5454 5454
5440 5441 5443 5444 5446 5447 5448 5449 5451 5452 5454 5455 5456 5458 5459 5459 5460 5460 5461 5461 5461 5461 5461 5461 5461 5460 5460 5459 5458 5458 5457 5457 5456 5455 5454 5452 5451 5450 5449 5449 5448 5447 5446 5446
5432 5433 5435 5436 5438 5439 5440 5441 5442 5444 5445 5447 5448 5449 5450 5451 5451 5452 5452 5452 5452 5452 5452 5451 5451 5451 5451 5450 5450 5449 5448 5448 5447 5446 5445 5444 5443 5442 5442 5441 5440 5439 5439 5439
5426 5426 5428 5429 5430 5431 5433 5433 5435 5436 5437 5438 5440 5441 5442 5442 5443 5443 5443 5443 5443 5443 5443 5442 5442 5442 5442 5442 5441 5440 5440 5440 5439 5438 5437 5436 5435 5435 5434 5433 5433 5432 5432 5432